Location: Cowley
(49.5667°N, 114.0667°W)
Time: 11:26:46
(UTC+00:00)

Envisat - Pass Details

Date: 05 December 2021
Orbit: 764 x 766 km, 98.2° (Epoch: 25 January)

Event Time Altitude Azimuth Distance (km) Brightness Sun altitude
Rises 01:11:15 0° 216° (SW) 3,223 7.2 -14.4°
Reaches altitude 10° 01:14:40 10° 241° (WSW) 2,303 6.8 -15.0°
Maximum altitude 01:17:23 14° 274° (W) 2,014 6.2 -15.4°
Drops below altitude 10° 01:20:07 10° 306° (NW) 2,313 6.0 -15.8°
Sets 01:23:34 0° 331° (NNW) 3,246 6.4 -16.3°
